[[{"header":{"parameterUnit":"m.s-1","parameterCategory":1,"la1":30.2991,"la2":30.254,"lo1":-89.0895,"lo2":-89.0444,"dy":0.0017,"dx":0.0017,"nx":28,"ny":28,"refTime":"2025-11-29T03:00:00:Z","depth":0,"parameterNumber":2,"parameterNumberName":"U-component_of_WINDS"},"data":[0,0,0,0,0,0,0,0,0,0,0,0,0,0,0,0,0,0,0,0,0,0,0,0,0,0,0,0,0,0,0,0,0,0,0,0,0,0,0,0,0,0,0,0,0,0,0,0,0,0,0,0,0,0,0,0,0,0,-5.0012,-5.0014,0,-5.0144,-5.0145,-5.0147,-5.0152,-5.0151,-5.0149,-5.0148,-5.0278,-5.0283,-5.0288,0,0,0,0,0,0,0,0,0,0,0,0,0,-4.9762,-4.9767,-5.0012,-5.0014,-5.0015,-5.0143,-5.0145,-5.0147,-5.0152,-5.0151,-5.0149,-5.0147,-5.0277,-5.0283,-5.0289,0,0,0,0,0,0,0,0,0,0,0,0,0,-4.988,-4.9768,-5.0012,-5.0034,-5.0037,-5.0143,-5.0145,-5.0147,-5.0153,-5.0151,-5.0148,-5.0146,-5.0275,-5.0282,-5.0289,-5.0381,0,0,-5.0312,-5.0315,0,0,0,0,0,0,0,0,-4.9873,-4.9889,-5.0029,-5.0032,-5.0036,-5.0129,-5.0105,-5.0226,-5.0153,-5.0109,-5.0148,-5.0145,-5.023,-5.0241,-5.0271,-5.0387,-5.0393,-5.0313,-5.0317,-5.032,-5.0322,0,0,0,0,0,0,0,-4.9865,-4.9883,-5.0064,-5.0031,-5.0035,-5.0036,-5.005,-5.0128,-5.0181,-5.0112,-5.0113,-5.0129,-5.0232,-5.0264,-5.0274,-5.0395,-5.0312,-5.0319,-5.0323,-5.0326,-5.0592,-5.0595,0,0,0,0,0,0,-4.9853,-4.9877,-5.006,-5.0068,-4.9948,-5.0042,-5.0058,-5.0102,-5.018,-5.019,-5.0131,-5.0129,-5.0252,-5.0265,-5.0279,-5.039,-5.032,-5.0327,-5.0331,-5.059,-5.0593,-5.0596,0,0,0,0,0,0,-4.9848,-4.987,-5.0055,-4.9973,-4.9996,-5.0049,-5.0098,-5.0105,-5.0137,-5.0194,-5.0203,-5.0154,-5.0251,-5.0268,-5.0356,-5.0394,-5.033,-5.0337,-5.0586,-5.0591,-5.0594,-5.0614,0,0,0,0,0,0,-4.9841,-4.9868,-4.9904,-4.9973,-5.0001,-5.013,-5.01,-5.011,-5.015,-5.0149,-5.0218,-5.0227,-5.0251,-5.0345,-5.0363,-5.0403,-5.0343,-5.0583,-5.0588,-5.0593,-5.061,-5.0618,-5.0625,0,0,0,0,0,-4.9832,-4.9904,-4.9906,-4.9928,-5.0047,-5.0133,-5.0148,-5.0175,-5.0154,-5.019,-5.0226,-5.0225,-5.0388,-5.0354,-5.0374,-5.0417,-5.0581,-5.0587,-5.0593,-5.0606,-5.0616,-5.0625,0,0,0,0,0,0,-4.9835,-4.9913,-4.9916,-5.0013,-5.0066,-5.0133,-5.018,-5.0184,-5.0244,-5.024,-5.027,-5.0285,-5.0371,-5.0404,-5.0364,-5.051,-5.0482,-5.0492,-5.0485,-5.0495,-5.0502,-5.0491,-5.0349,0,0,0,0,0,-4.9848,-4.9912,-4.9976,-5.0055,-5.0082,-5.0126,-5.0165,-5.0181,-5.0237,-5.0259,-5.0302,-5.0355,-5.0418,-5.0459,-5.052,-5.0616,-5.063,-5.0656,-5.0663,-5.0669,-5.0677,-5.0728,-5.0739,-5.0615,-5.0615,-5.0615,0,0,-4.9873,-4.9924,-4.9962,-5.0057,-5.01,-5.0165,-5.0145,-5.0214,-5.0262,-5.0269,-5.0354,-5.0387,-5.0449,-5.054,-5.0583,-5.057,-5.0715,-5.0677,-5.0681,-5.0685,-5.0735,-5.0747,-5.0757,-5.0619,-5.0618,-5.0618,0,0,-4.9952,-4.9998,-5.0068,-5.0112,-5.0178,-5.0208,-5.0225,-5.0292,-5.0314,-5.0401,-5.0407,-5.0464,-5.0573,-5.0616,-5.0652,-5.0748,-5.0748,-5.0768,-5.0805,-5.0855,-5.0864,-5.0873,-5.0905,-5.0917,-5.0776,-5.0776,-5.0776,0,-4.9975,-5.0073,-5.0103,-5.0172,-5.0213,-5.0225,-5.0295,-5.0336,-5.0418,-5.0445,-5.0431,-5.0567,-5.061,-5.071,-5.0734,-5.0764,-5.0782,-5.0758,-5.0861,-5.087,-5.0879,-5.0909,-5.0922,-5.0777,-5.0777,-5.0777,-5.0777,0,-5.0097,-5.0165,-5.0213,-5.0294,-5.034,-5.041,-5.0449,-5.0492,-5.0505,-5.0535,-5.0622,-5.0674,-5.0745,-5.0771,-5.0784,-5.0874,-5.0864,-5.0855,-5.0826,-5.0892,-5.0921,-5.0933,-5.078,-5.0779,-5.0779,-5.0778,0,0,-5.0179,-5.0276,-5.0293,-5.0329,-5.0404,-5.0456,-5.0526,-5.0597,-5.0633,-5.069,-5.0747,-5.084,-5.0832,-5.0873,-5.0891,-5.0935,-5.1005,-5.0921,-5.0922,-5.0932,-5.1105,-5.1109,-5.1122,-5.1008,-5.101,-5.1012,-5.1099,0,-5.0264,-5.0388,-5.0418,-5.0524,-5.0586,-5.0599,-5.0659,-5.0711,-5.0742,-5.0798,-5.0832,-5.0896,-5.0882,-5.0907,-5.0951,-5.0987,-5.104,-5.0982,-5.1059,-5.1061,-5.104,-5.1138,-5.1142,-5.1222,-5.1111,-5.1113,-5.1114,0,-5.0379,-5.0439,-5.0552,-5.0617,-5.0645,-5.0698,-5.0765,-5.082,-5.0879,-5.0898,-5.0944,-5.0958,-5.103,-5.1,-5.1098,-5.1058,-5.1092,-5.1115,-5.1119,-5.1124,-5.1089,-5.1143,-5.1248,-5.1259,-5.1133,-5.1131,-5.113,0,-5.0424,-5.0534,-5.0615,-5.0646,-5.0725,-5.0763,-5.0797,-5.0854,-5.0894,-5.0953,-5.098,-5.1046,-5.1081,-5.1132,-5.1162,-5.1139,-5.1257,-5.1231,-5.1273,-5.1272,-5.1295,-5.1292,-5.1403,-5.1322,-5.1322,-5.1321,-5.1321,0,-5.0514,-5.0581,-5.0636,-5.0686,-5.0762,-5.0795,-5.0869,-5.0903,-5.0954,-5.1009,-5.1025,-5.1077,-5.1116,-5.1172,-5.1197,-5.1273,-5.129,-5.1306,-5.1311,-5.1303,-5.13,-5.1323,-5.1317,-5.1325,-5.1324,-5.1323,-5.1323,0,-5.0576,-5.0616,-5.0704,-5.0773,-5.0792,-5.0844,-5.0902,-5.095,-5.0983,-5.1053,-5.1071,-5.112,-5.1188,-5.1225,-5.131,-5.1326,-5.141,-5.1414,-5.1391,-5.1392,-5.1431,-5.1426,-5.1558,-5.1576,-5.1485,-5.1486,-5.1487,0,-5.0629,-5.0681,-5.0756,-5.0795,-5.083,-5.0893,-5.0935,-5.097,-5.1012,-5.1083,-5.1122,-5.1191,-5.1248,-5.1355,-5.1398,-5.1462,-5.1466,-5.1508,-5.1475,-5.1465,-5.1463,-5.1459,-5.1463,-5.1512,-5.1513,-5.1514,-5.1515,0,-5.0718,-5.0735,-5.0796,-5.0863,-5.0913,-5.0967,-5.1021,-5.1051,-5.1095,-5.1142,-5.1212,-5.1256,-5.1343,-5.141,-5.1479,-5.1513,-5.152,-5.1525,-5.1538,-5.1528,-5.1511,-5.1518,-5.1403,-5.1521,-5.152,-5.152,-5.1519,-5.1519,-5.0776,-5.0822,-5.0882,-5.0948,-5.0993,-5.1043,-5.1091,-5.1129,-5.1188,-5.1262,-5.1279,-5.1352,-5.1409,-5.1502,-5.1539,-5.1595,-5.1587,-5.1606,-5.161,-5.1614,-5.1614,-5.1505,-5.1608,-5.1608,-5.1608,-5.1608,-5.1608,0,-5.0863,-5.0903,-5.0964,-5.1038,-5.109,-5.1095,-5.1155,-5.1197,-5.1262,-5.1315,-5.1371,-5.145,-5.1516,-5.1565,-5.1632,-5.1668,-5.1673,-5.1684,-5.168,-5.1687,-5.1619,-5.16,-5.1678,-5.1678,-5.1678,-5.1678,-5.1678,-5.1678,-5.0915,-5.0993,-5.1018,-5.1118,-5.1157,-5.1229,-5.1262,-5.1308,-5.1351,-5.1439,-5.1494,-5.1526,-5.1577,-5.1648,-5.1708,-5.172,-5.1743,-5.1753,-5.1765,-5.17,-5.1692,-5.1685,-5.1667,-5.1758,-5.1759,-5.1829,-5.183,-5.183]},{"header":{"parameterUnit":"m.s-1","parameterCategory":1,"la1":30.2991,"la2":30.254,"lo1":-89.0895,"lo2":-89.0444,"dy":0.0017,"dx":0.0017,"nx":28,"ny":28,"refTime":"2025-11-29T03:00:00:Z","depth":0,"parameterNumber":3,"parameterNumberName":"V-component_of_WINDS"},"data":[0,0,0,0,0,0,0,0,0,0,0,0,0,0,0,0,0,0,0,0,0,0,0,0,0,0,0,0,0,0,0,0,0,0,0,0,0,0,0,0,0,0,0,0,0,0,0,0,0,0,0,0,0,0,0,0,0,0,4.5885,4.5886,0,4.5925,4.5925,4.5926,4.5884,4.5883,4.5881,4.5879,4.5916,4.5918,4.5921,0,0,0,0,0,0,0,0,0,0,0,0,0,4.5769,4.5772,4.5885,4.5886,4.5886,4.5925,4.5925,4.5926,4.5884,4.5882,4.5881,4.5879,4.5915,4.5918,4.5921,0,0,0,0,0,0,0,0,0,0,0,0,0,4.5815,4.5772,4.5885,4.587,4.5869,4.5925,4.5925,4.5926,4.5885,4.5882,4.588,4.5878,4.5914,4.5918,4.5921,4.5992,0,0,4.5933,4.5934,0,0,0,0,0,0,0,0,4.5813,4.582,4.5872,4.5871,4.587,4.5897,4.5898,4.5948,4.5885,4.5879,4.5879,4.5877,4.5911,4.5915,4.5928,4.5994,4.5995,4.5933,4.5935,4.5937,4.5938,0,0,0,0,0,0,0,4.581,4.5818,4.5901,4.5873,4.5872,4.586,4.5864,4.5907,4.5908,4.5879,4.5876,4.5882,4.591,4.5924,4.5928,4.5996,4.5933,4.5936,4.5938,4.594,4.6121,4.6124,0,0,0,0,0,0,4.5809,4.5815,4.5899,4.5902,4.5835,4.5864,4.5869,4.5891,4.5907,4.5908,4.5884,4.588,4.5919,4.5924,4.5929,4.6012,4.5937,4.594,4.5942,4.6119,4.6122,4.6125,0,0,0,0,0,0,4.5806,4.5817,4.5898,4.5858,4.5867,4.5869,4.5894,4.5893,4.5907,4.5911,4.591,4.5898,4.5917,4.5924,4.5977,4.6013,4.5942,4.5945,4.6116,4.612,4.6123,4.6179,0,0,0,0,0,0,4.5803,4.5816,4.5844,4.5859,4.587,4.5946,4.5897,4.5896,4.5914,4.5909,4.5924,4.5924,4.5916,4.5972,4.5981,4.6017,4.5948,4.6112,4.6118,4.6122,4.6174,4.6185,4.6193,0,0,0,0,0,4.5799,4.5857,4.5845,4.5856,4.5905,4.5948,4.5954,4.5945,4.5917,4.5944,4.5947,4.5924,4.6008,4.5977,4.5987,4.6025,4.611,4.6116,4.6122,4.617,4.6182,4.6193,0,0,0,0,0,0,4.5844,4.5859,4.5846,4.5911,4.5929,4.5941,4.5975,4.5959,4.5984,4.5978,4.5964,4.5968,4.6024,4.603,4.5995,4.6094,4.6054,4.6062,4.6087,4.61,4.6109,4.6105,4.5951,0,0,0,0,0,4.5862,4.5898,4.5908,4.5964,4.5974,4.5973,4.5992,4.5983,4.6001,4.6008,4.6014,4.6031,4.6061,4.6081,4.6109,4.6176,4.6178,4.6207,4.6216,4.6224,4.623,4.6265,4.6277,4.6144,4.6144,4.6144,0,0,4.5898,4.5911,4.5934,4.5973,4.5986,4.6022,4.598,4.6019,4.6045,4.6013,4.6063,4.6069,4.6087,4.6147,4.6173,4.6153,4.6268,4.6232,4.6238,4.624,4.6272,4.6285,4.6296,4.6148,4.6147,4.6147,0,0,4.5982,4.5996,4.6044,4.6058,4.6079,4.6079,4.609,4.6106,4.6109,4.6159,4.6136,4.6166,4.6219,4.6232,4.6246,4.6337,4.6316,4.6347,4.6396,4.643,4.644,4.645,4.648,4.6492,4.6354,4.6354,4.6354,0,4.6024,4.6078,4.607,4.6112,4.6129,4.6104,4.6152,4.6166,4.6194,4.6206,4.6184,4.625,4.626,4.6322,4.6345,4.6357,4.6369,4.6343,4.644,4.6449,4.6457,4.6486,4.6498,4.6357,4.6357,4.6356,4.6356,0,4.6128,4.6166,4.6202,4.6232,4.6253,4.6298,4.6295,4.6318,4.6308,4.631,4.6361,4.6373,4.6403,4.6418,4.6408,4.6478,4.6465,4.6442,4.6401,4.6474,4.65,4.6512,4.6362,4.6361,4.636,4.6359,0,0,4.6238,4.6265,4.6278,4.6291,4.6313,4.6341,4.6385,4.6415,4.6434,4.6456,4.649,4.6536,4.6515,4.6531,4.6522,4.6553,4.6622,4.6525,4.6525,4.6541,4.6698,4.6714,4.6727,4.6609,4.6612,4.6613,4.6696,0,4.6322,4.6397,4.6392,4.6463,4.6497,4.6475,4.6512,4.6529,4.6532,4.656,4.6563,4.6595,4.6566,4.6575,4.6604,4.6607,4.6653,4.6602,4.6639,4.6641,4.6633,4.6741,4.6758,4.6835,4.6707,4.6708,4.671,0,4.6428,4.6454,4.6529,4.6546,4.656,4.6594,4.6621,4.665,4.6668,4.6668,4.6687,4.6674,4.6716,4.6677,4.6734,4.6699,4.6714,4.6718,4.6721,4.6722,4.6678,4.6743,4.686,4.687,4.6727,4.6725,4.6724,0,4.6499,4.6553,4.6605,4.6617,4.6638,4.6662,4.6672,4.6689,4.6708,4.6732,4.6743,4.6772,4.6787,4.6808,4.6803,4.6775,4.6861,4.6821,4.686,4.686,4.6876,4.6875,4.6995,4.6891,4.6891,4.689,4.689,0,4.6591,4.6637,4.6637,4.6668,4.6719,4.6712,4.6762,4.6769,4.6784,4.6815,4.6798,4.6828,4.682,4.6849,4.6845,4.6892,4.6899,4.6899,4.6897,4.6899,4.6899,4.6907,4.69,4.6894,4.6893,4.6892,4.6892,0,4.6677,4.6679,4.6734,4.6751,4.6756,4.6792,4.6806,4.6835,4.6837,4.6877,4.6886,4.6889,4.6923,4.692,4.6957,4.6955,4.7012,4.7005,4.7006,4.7003,4.7041,4.7037,4.7169,4.7185,4.7073,4.7074,4.7075,0,4.6734,4.677,4.6791,4.6811,4.6823,4.6856,4.6876,4.6871,4.6892,4.6916,4.6942,4.6974,4.6999,4.7053,4.7058,4.7086,4.7078,4.7122,4.7082,4.7083,4.7076,4.7073,4.7076,4.7129,4.7131,4.7132,4.7132,0,4.6835,4.6835,4.6865,4.6895,4.6919,4.6943,4.6964,4.6981,4.6978,4.7003,4.7037,4.7057,4.7096,4.7127,4.7154,4.7163,4.7147,4.7146,4.7156,4.7157,4.7155,4.7155,4.7025,4.7142,4.7141,4.714,4.714,4.7139,4.6907,4.6937,4.6957,4.699,4.7007,4.7027,4.7055,4.7062,4.7091,4.7123,4.7118,4.7156,4.7174,4.7209,4.7221,4.725,4.7233,4.7248,4.7252,4.7255,4.7258,4.7153,4.7255,4.7254,4.7254,4.7254,4.7254,0,4.7005,4.7018,4.7049,4.708,4.7106,4.7091,4.7114,4.7136,4.7171,4.7189,4.7215,4.7254,4.7285,4.7293,4.7322,4.7344,4.7337,4.7351,4.7348,4.735,4.7272,4.7259,4.7356,4.7356,4.7356,4.7356,4.7356,4.7356,4.7059,4.7109,4.7111,4.7168,4.7179,4.7218,4.7232,4.725,4.7265,4.731,4.7336,4.7342,4.7356,4.7386,4.7413,4.7415,4.7425,4.7442,4.744,4.7366,4.7356,4.7346,4.7334,4.7445,4.7445,4.7516,4.7517,4.7517]}]]